DLH403 EDDF-KEWR

Flight info

Callsign DLH403
Flight time N/A
Altitude 34000
Route OBOKA3W OBOKA Z28 DIBIR DCT BUDIP DCT RAVLO Y70 OTBED L60 PENIL M144 OGTUG/N0468F360 M144 BAGSO DCT DOGAL/M082F360 NATC ELSIR/N0472F380 N408A HULTN DCT CBIRD DCT HANAA FLOSI4
Aircraft A346/H-SDE2E3FGHIJ3J4J5M1RWXY/LB1D1

Departure

Time 2026-05-07 11:47
Airport Frankfurt Main Airport (EDDF)

Arrival

Time N/A
Airport Newark Liberty International Airport (KEWR)
Time Latitude Longitude Altitude Speed Heading
2026-05-07 10:06 50.04662 8.56047 379 ft 0 kts 340°
2026-05-07 11:36 50.04655 8.56051 379 ft 2 kts 338°
2026-05-07 11:36 50.04641 8.56060 379 ft 2 kts 339°
2026-05-07 11:36 50.04632 8.56066 379 ft 2 kts 339°
2026-05-07 11:36 50.04619 8.56076 379 ft 2 kts 321°
2026-05-07 11:37 50.04608 8.56094 379 ft 2 kts 302°
2026-05-07 11:37 50.04602 8.56115 379 ft 2 kts 286°
2026-05-07 11:37 50.04599 8.56138 379 ft 2 kts 269°
2026-05-07 11:37 50.04601 8.56161 379 ft 1 kts 252°
2026-05-07 11:38 50.04601 8.56160 379 ft 2 kts 252°
2026-05-07 11:38 50.04588 8.56103 379 ft 5 kts 248°
2026-05-07 11:38 50.04579 8.56074 379 ft 0 kts 248°
2026-05-07 11:38 50.04578 8.56067 379 ft 0 kts 250°
2026-05-07 11:41 50.04571 8.56039 379 ft 5 kts 249°
2026-05-07 11:41 50.04538 8.55967 379 ft 12 kts 213°
2026-05-07 11:41 50.04443 8.55916 379 ft 16 kts 192°
2026-05-07 11:42 50.04330 8.55934 379 ft 16 kts 159°
2026-05-07 11:42 50.04216 8.55940 379 ft 16 kts 184°
2026-05-07 11:42 50.04110 8.55982 379 ft 13 kts 153°
2026-05-07 11:42 50.04085 8.56107 379 ft 13 kts 73°
2026-05-07 11:43 50.04122 8.56257 379 ft 17 kts 69°
2026-05-07 11:43 50.04169 8.56452 379 ft 19 kts 70°
2026-05-07 11:43 50.04217 8.56657 379 ft 20 kts 70°
2026-05-07 11:43 50.04270 8.56876 379 ft 21 kts 69°
2026-05-07 11:44 50.04326 8.57104 379 ft 22 kts 70°
2026-05-07 11:44 50.04381 8.57340 379 ft 23 kts 70°
2026-05-07 11:44 50.04442 8.57596 379 ft 25 kts 70°
2026-05-07 11:44 50.04505 8.57858 379 ft 26 kts 70°
2026-05-07 11:45 50.04570 8.58128 379 ft 26 kts 70°
2026-05-07 11:45 50.04630 8.58379 379 ft 18 kts 70°
2026-05-07 11:45 50.04655 8.58527 379 ft 9 kts 116°
2026-05-07 11:45 50.04596 8.58594 379 ft 11 kts 158°
2026-05-07 11:46 50.04516 8.58632 379 ft 10 kts 184°
2026-05-07 11:46 50.04479 8.58550 379 ft 10 kts 250°
2026-05-07 11:46 50.04407 8.58252 379 ft 59 kts 250°
2026-05-07 11:46 50.04193 8.57351 380 ft 117 kts 250°
2026-05-07 11:47 50.03846 8.55907 380 ft 164 kts 250°
2026-05-07 11:47 50.03426 8.54137 628 ft 177 kts 251°
2026-05-07 11:47 50.02983 8.52352 1081 ft 176 kts 250°
2026-05-07 11:47 50.02511 8.50578 1495 ft 180 kts 243°
2026-05-07 11:48 50.01674 8.49044 1756 ft 193 kts 221°
2026-05-07 11:48 50.00453 8.48004 1997 ft 208 kts 199°
2026-05-07 11:48 49.98992 8.47589 2350 ft 217 kts 189°
2026-05-07 11:48 49.97474 8.47312 2906 ft 217 kts 187°
2026-05-07 11:49 49.95964 8.46969 3446 ft 218 kts 194°
2026-05-07 11:49 49.94471 8.46368 3803 ft 228 kts 197°
2026-05-07 11:49 49.92894 8.45658 4066 ft 245 kts 199°
2026-05-07 11:49 49.91359 8.44470 4463 ft 253 kts 226°
2026-05-07 11:50 49.90317 8.42355 5222 ft 246 kts 242°
2026-05-07 11:50 49.89444 8.40012 5888 ft 248 kts 243°
2026-05-07 11:50 49.88699 8.37599 6508 ft 248 kts 259°
2026-05-07 11:50 49.88523 8.34961 7070 ft 250 kts 275°
2026-05-07 11:51 49.88680 8.32160 7412 ft 265 kts 277°
2026-05-07 11:51 49.88874 8.29241 7897 ft 274 kts 278°
2026-05-07 11:51 49.89341 8.26352 8548 ft 274 kts 295°
2026-05-07 11:51 49.90299 8.23823 9194 ft 275 kts 307°
2026-05-07 11:52 49.91457 8.21422 9762 ft 279 kts 308°
2026-05-07 11:52 49.92629 8.19029 10308 ft 284 kts 308°
2026-05-07 11:52 49.93923 8.16590 10626 ft 298 kts 313°
2026-05-07 11:52 49.95425 8.14248 10898 ft 313 kts 318°
2026-05-07 11:53 49.97089 8.11992 11167 ft 327 kts 319°
2026-05-07 11:53 49.98876 8.09620 11435 ft 342 kts 320°
2026-05-07 11:53 50.00696 8.07205 11688 ft 356 kts 320°
2026-05-07 11:53 50.02609 8.04658 11978 ft 369 kts 319°
2026-05-07 11:54 50.04579 8.02024 12554 ft 373 kts 319°
2026-05-07 11:54 50.06547 7.99388 13221 ft 375 kts 319°
2026-05-07 11:54 50.08537 7.96719 13860 ft 377 kts 319°
2026-05-07 11:54 50.10520 7.94055 14435 ft 381 kts 319°
2026-05-07 11:55 50.12526 7.91357 14985 ft 384 kts 319°
2026-05-07 11:55 50.14594 7.88569 15544 ft 388 kts 319°
2026-05-07 11:55 50.16671 7.85766 16092 ft 392 kts 319°
2026-05-07 11:55 50.18728 7.82985 16624 ft 395 kts 319°
2026-05-07 11:56 50.20835 7.80134 17159 ft 398 kts 319°
2026-05-07 11:56 50.22941 7.77306 17703 ft 401 kts 321°
2026-05-07 11:56 50.25206 7.74693 18220 ft 404 kts 327°
2026-05-07 11:56 50.27649 7.72439 18727 ft 407 kts 332°
2026-05-07 11:57 50.30250 7.70519 19223 ft 410 kts 336°
2026-05-07 11:57 50.32862 7.68734 19698 ft 413 kts 336°
2026-05-07 11:57 50.35546 7.66922 20184 ft 416 kts 336°
2026-05-07 11:57 50.38175 7.65136 20634 ft 419 kts 336°
2026-05-07 11:58 50.40863 7.63216 21058 ft 423 kts 331°
2026-05-07 11:58 50.43354 7.60640 21465 ft 426 kts 321°
2026-05-07 11:58 50.45546 7.57485 21907 ft 428 kts 313°
2026-05-07 11:58 50.47517 7.53983 22351 ft 431 kts 311°
2026-05-07 11:59 50.49471 7.50382 22759 ft 434 kts 310°
2026-05-07 11:59 50.51468 7.46713 23170 ft 437 kts 311°
2026-05-07 11:59 50.53464 7.43112 23575 ft 440 kts 311°
2026-05-07 11:59 50.55488 7.39493 23971 ft 443 kts 312°
2026-05-07 12:00 50.57539 7.35832 24366 ft 445 kts 312°
2026-05-07 12:00 50.59595 7.32154 24762 ft 448 kts 311°